Regional Weather Roundup
Issued by NWS

Home | Current Version | Previous Version | Graphics & Text | Print | Product List | Glossary On
Versions: 1 2 3 4 5 6 7 8 9 10 11 12 13 14 15 16 17 18 19 20 21 22 23 24 25 26 27 28 29 30 31 32 33 34 35 36 37 38 39 40 41 42 43 44 45 46 47 48 49 50
000
ASUS43 KLMK 030802
RWRKY
KENTUCKY REGIONAL WEATHER ROUNDUP
NATIONAL WEATHER SERVICE LOUISVILLE KY
400 AM EDT MON AUG 03 2015

NOTE "FAIR" INDICATES FEW OR NO CLOUDS BELOW 12,000 FEET
WITH NO SIGNIFICANT WEATHER AND/OR OBSTRUCTIONS TO VISIBILITY.

KYZ001>023-026-027-061>063-070>075-030900-
WESTERN AND SOUTH CENTRAL KENTUCKY

CITY           SKY/WX    TMP DP  RH WIND       PRES   REMARKS
PADUCAH        CLEAR     75  71  87 SW6       29.87S
HENDERSON      PTCLDY    73  64  73 SW7       29.85S
OWENSBORO      PTCLDY    71  67  87 S5        29.87F
HOPKINSVILLE   CLEAR     71  64  79 CALM      29.89F
BOWLING GREEN  CLEAR     67  64  90 CALM      29.91F
GLASGOW        NOT AVBL
$$

KYZ024-025-028>034-038-045-046-053-030900-
NORTH CENTRAL KENTUCKY

CITY           SKY/WX    TMP DP  RH WIND       PRES   REMARKS
LOUISVILLE/SDF PTCLDY    72  64  76 SE6       29.86F
LOUISVILLE/LOU CLEAR     72  63  73 S3        29.88F
FORT KNOX      NOT AVBL
$$

KYZ035>037-039>044-047>052-055>060-089>105-030900-
NORTHEAST KENTUCKY

CITY           SKY/WX    TMP DP  RH WIND       PRES   REMARKS
LEXINGTON      CLEAR     65  61  87 S6        29.91S
COVINGTON      PTCLDY    67  61  81 S7        29.87F
FRANKFORT      CLEAR     64  59  83 SW5       29.88F
$$

KYZ054-064>069-076>088-106>120-030900-
SOUTHEAST KENTUCKY

CITY           SKY/WX    TMP DP  RH WIND       PRES   REMARKS
JACKSON        CLEAR     65  61  87 CALM      29.93S
LONDON         CLEAR     64  60  87 CALM      29.93F
SOMERSET       NOT AVBL
MIDDLESBORO    CLEAR     60  60  99 CALM      29.96F
MONTICELLO     SUNNY     60  60 100 CALM      29.95F
$$



USA.gov is the U.S. government's official web portal to all federal, state and local government web resources and services.